Etusivu
METAR-TAF:

METAR-TAF

Lentoasemat :

Maple Lake Municipal Airport

Maple Lake, Minnesota, Yhdysvallat

Leveyspiiri: 45-14-10N, Pituuspiiri: 093-59-08W, korkeus merenpinnasta: 313 m

Tämänhetkinen sää

Tämä raportti tehtiin 18 minuuttia sitten, kello 11.16 UTC
tyyntä
Lämpötila 15°C
Kosteus 94%
Ilmanpaine 1024 hPa
Näkyvyys: 16.1 km

METAR: KMGG 241116Z AUTO 00000KT 10SM 15/14 A3024 RMK AO2 T01520142

Aika: 06:34 (11:34 UTC)


TAF: puuttuu

Säähavainnot ja -ennusteet yli 4000 lentoasemalta (METAR- ja TAF-raportit).

Käytössä olevat sääasemat on merkitty karttaan keltaisilla ja punaisilla pisteillä.

Aseta hiiri pisteen päälle nähdäksesi sääaseman nimen.

Klikkaa sitten nähdäksesi säähavainnot ja -ennusteet.

Kartan vaihtaminen: klikkaa mustalla rastilla varustettuja vihreitä pisteitä, niin voit zoomata sisään; viivalla varustettua vihreää pistettä, niin voit zoomata ulos tai vihreitä nuolia, niin pääset viereisille kartoille.


METAR-TAF: